Weather observations for the past three days for
Huron County Memorial Airport
Imperial (Metric)
Date Time (edt) Wind (mph) Vis. (mi.) Weather Sky Cond. Temperature (ºF) Relative Humidity Wind Chill (°F) Heat Index (°F) Pressure Precipitation (in)
Air Dwpt 6 hour altimeter (in) sea level (mb) 1 hr 3 hr 6 hr
Max. Min.
13 00:35 S 12 10.00 Partly Cloudy SCT110 65.8 57.9 76% 29.84 0.0
13 00:15 SW 6 10.00 Partly Cloudy SCT120 68 57.6 69% 29.84 0.0
12 23:55 S 13 10.00 Fair CLR 66.6 58.6 76% 29.84 0.0
12 23:35 Calm 10.00 Fair CLR 67.3 59 75% 29.84 0.0
12 23:15 Calm 10.00 Fair CLR 67.6 58.6 73% 29.85 0.0
12 22:55 Calm 10.00 Fair CLR 66.2 59.5 79% 29.84 0.0
12 22:35 Calm 10.00 Fair CLR 68.2 59.9 75% 29.84 0.0
12 22:15 Calm 10.00 Fair CLR 69.1 60.3 74% 29.84 0.0
12 21:55 Calm 10.00 Fair CLR 69.1 60.1 73% 29.85 0.0
12 21:35 S 3 10.00 Fair CLR 69.8 60.1 71% 29.84 0.0
12 21:15 SW 3 10.00 Fair CLR 72.3 59.4 64% 29.84 0.0
12 20:55 Calm 10.00 Partly Cloudy SCT060 74.3 59.2 59% 29.84 0.0
12 20:35 W 3 10.00 Mostly Cloudy BKN060 BKN070 76.5 59.9 57% 78 29.84 0.0
12 20:15 W 3 10.00 Mostly Cloudy BKN060 BKN080 77.7 60.1 55% 79 29.84 0.0
12 19:55 SW 6 10.00 Partly Cloudy SCT060 SCT080 SCT100 79 58.8 83.3 78.8 50% 80 29.84 0.0
12 19:35 SW 7 10.00 Overcast BKN060 BKN070 OVC100 79.2 58.1 49% 80 29.84 0.0
12 19:15 SW 12 G 16 10.00 Overcast SCT060 BKN080 OVC100 79.7 57.9 47% 80 29.84 0.0
12 18:55 SW 8 10.00 Overcast SCT060 BKN070 OVC095 79.5 57.9 48% 80 29.85 0.0
12 18:35 SW 8 10.00 Mostly Cloudy SCT060 BKN095 BKN110 80.2 58.1 47% 81 29.86 0.0
12 18:15 SW 9 10.00 Mostly Cloudy BKN060 BKN095 BKN110 82 57.9 44% 82 29.85 0.0
12 17:55 SW 10 G 17 10.00 Mostly Cloudy BKN060 BKN070 BKN085 81 57 44% 81 29.86 0.0
12 17:35 SW 14 G 17 10.00 Partly Cloudy SCT060 SCT070 SCT080 81 56.7 43% 81 29.86 0.0
12 17:15 SW 9 10.00 Partly Cloudy SCT060 SCT080 83.1 56.8 41% 83 29.86 0.0
12 16:55 SW 10 G 18 10.00 Partly Cloudy SCT060 SCT080 81.7 56.8 43% 81 29.86 0.0
12 16:35 SW 16 G 21 10.00 Partly Cloudy SCT060 SCT080 82.4 55.6 40% 82 29.87 0.0
12 16:15 SW 8 G 20 10.00 Partly Cloudy SCT060 SCT080 82.2 55.6 40% 82 29.87 0.0
12 15:55 SW 8 10.00 Partly Cloudy SCT070 82.9 56.7 41% 82 29.88 0.0
12 15:35 W 12 G 16 10.00 Fair CLR 82.9 55.8 39% 82 29.88 0.0
12 15:15 W 9 G 16 10.00 Fair CLR 82.2 54.9 39% 82 29.89 0.0
12 14:55 SW 13 10.00 Fair CLR 81.5 53.6 38% 81 29.89 0.0
12 14:35 S 10 G 17 10.00 Fair CLR 80.8 52.9 38% 80 29.89 0.0
12 14:15 SW 10 G 18 10.00 Fair CLR 80.8 53.6 39% 80 29.9 0.0
12 13:55 SW 8 10.00 Fair CLR 80.6 52.7 80.6 61.2 38% 80 29.9 0.0
12 13:35 SW 10 G 18 10.00 Fair CLR 79.9 51.3 37% 80 29.91 0.0
12 13:15 SW 8 G 16 10.00 Fair CLR 79 49.1 35% 79 29.92 0.0
12 12:55 W 6 10.00 Fair CLR 79 48.4 34% 79 29.92 0.0
12 12:35 SW 9 10.00 Fair CLR 78.3 48.6 35% 79 29.93 0.0
12 12:15 SW 8 10.00 Fair CLR 77.2 46.6 34% 78 29.93 0.0
12 11:55 SW 8 10.00 Fair CLR 76.1 48 37% 78 29.93 0.0
12 11:35 S 8 10.00 Fair CLR 75.2 48.2 39% 77 29.93 0.0
12 11:15 W 8 10.00 Fair CLR 74.8 48.9 40% 29.94 0.0
12 10:55 SW 12 10.00 Fair CLR 73.8 46.6 38% 29.94 0.0
12 10:35 SW 9 10.00 Fair CLR 72.7 47.7 41% 29.94 0.0
12 10:15 SW 8 10.00 Fair CLR 71.6 46.8 41% 29.94 0.0
12 09:55 SW 8 10.00 Fair CLR 70.5 46.9 43% 29.95 0.0
12 09:35 SW 12 G 17 10.00 Fair CLR 69.3 47.5 46% 29.95 0.0
12 09:15 S 9 10.00 Fair CLR 68 48.7 50% 29.95 0.0
12 08:55 S 8 G 20 10.00 Fair CLR 66 48.4 53% 29.95 0.0
12 08:35 S 13 G 20 10.00 Fair CLR 64.4 48.6 57% 29.96 0.0
12 08:15 S 10 G 21 10.00 Fair CLR 62.8 48.2 59% 29.96 0.0
12 07:55 S 12 G 18 10.00 Partly Cloudy SCT070 59.9 47.5 60.8 58.1 64% 29.96 0.0
12 07:35 S 7 G 18 10.00 Overcast OVC070 60.8 47.7 62% 29.97 0.0
12 07:15 S 8 10.00 Overcast OVC070 59.9 47.3 63% 29.96 0.0
12 06:55 SE 7 10.00 Overcast OVC070 59 47.5 66% 29.96 0.0
12 06:35 S 6 10.00 Overcast OVC070 58.8 47.5 66% 29.96 0.0
12 06:15 S 7 10.00 Overcast OVC070 59 47.3 65% 29.96 0.0
12 05:55 Calm 10.00 Overcast OVC070 58.6 47.3 66% 29.96 0.0
12 05:35 SE 7 10.00 Overcast OVC070 58.5 46.8 65% 29.96 0.0
12 05:15 SE 6 10.00 Overcast OVC080 58.5 46.8 65% 29.96 0.0
12 04:55 SE 7 10.00 Overcast OVC080 58.6 46.4 64% 29.96 0.0
12 04:35 S 7 10.00 Overcast OVC080 58.3 46.6 65% 29.95 0.0
12 04:15 S 5 10.00 Overcast OVC090 58.1 46.6 66% 29.95 0.0
12 03:55 S 6 10.00 Overcast OVC090 58.3 46.6 65% 29.95 0.0
12 03:35 S 7 10.00 Overcast OVC090 58.8 46.2 63% 29.95 0.0
12 03:15 S 9 10.00 Overcast OVC100 59 46.2 63% 29.95 0.0
12 02:55 S 9 10.00 Overcast OVC100 58.5 46.4 64% 29.95 0.0
12 02:35 S 9 10.00 Overcast OVC100 58.6 46.2 64% 29.95 0.0
12 02:15 S 8 10.00 Overcast OVC110 58.5 45.9 63% 29.96 0.0
12 01:55 S 8 10.00 Overcast OVC110 58.1 45.7 63.1 56.3 64% 29.96 0.0
12 01:35 S 7 10.00 Partly Cloudy SCT120 56.5 45 66% 29.96 0.0
12 01:15 S 7 10.00 Fair CLR 57.2 44.1 62% 29.96 0.0
12 00:55 S 5 10.00 Fair CLR 57.2 43 59% 29.96 0.0
12 00:35 S 5 10.00 Fair CLR 57.2 41.9 57% 29.97 0.0
12 00:15 SE 6 10.00 Fair CLR 57.9 40.8 53% 29.97 0.0
11 23:55 SE 3 10.00 Fair CLR 57.6 40.1 52% 29.97 0.0
11 23:35 Calm 10.00 Fair CLR 56.7 40.5 55% 29.97 0.0
11 23:15 SE 3 10.00 Fair CLR 57.4 40.1 53% 29.98 0.0
11 22:55 Calm 10.00 Fair CLR 57.7 39.9 52% 29.98 0.0
11 22:35 Calm 10.00 Fair CLR 58.3 39 49% 29.97 0.0
11 22:15 SE 5 10.00 Fair CLR 58.5 37.9 47% 29.96 0.0
11 21:35 SE 3 10.00 Fair CLR 58.6 39.9 50% 29.95 0.0
11 21:15 SE 5 10.00 Fair CLR 59.2 42.3 54% 29.96 0.0
11 20:55 SE 3 10.00 Fair CLR 60.1 44.1 56% 29.96 0.0
11 20:35 SE 5 10.00 Fair CLR 61.5 44.2 53% 29.96 0.0
11 20:15 SE 3 10.00 Fair CLR 62.4 44.1 51% 29.96 0.0
11 19:55 SE 8 10.00 Fair CLR 63.3 45 70.9 63.3 51% 29.96 0.0
11 19:35 E 6 10.00 Fair CLR 64.4 45 49% 29.96 0.0
11 19:15 E 7 10.00 Fair CLR 65.5 45.1 48% 29.96 0.0
11 18:55 SE 6 10.00 Fair CLR 66.2 45.3 47% 29.96 0.0
11 18:35 E 8 10.00 Fair CLR 66.7 46.4 48% 29.96 0.0
11 18:15 SE 3 10.00 Fair CLR 67.1 46.2 47% 29.96 0.0
11 17:55 E 6 10.00 Fair CLR 67.3 46 47% 29.96 0.0
11 17:35 SE 5 10.00 Fair CLR 67.5 46.9 48% 29.96 0.0
11 17:15 E 5 10.00 Fair CLR 67.1 46.4 48% 29.96 0.0
11 16:55 E 7 G 20 10.00 Fair CLR 67.1 47.8 50% 29.96 0.0
11 16:35 SE 5 10.00 Fair CLR 66.9 47.8 50% 29.98 0.0
11 16:15 SE 3 10.00 Fair CLR 69.4 37 31% 29.98 0.0
11 15:55 N 8 10.00 Fair CLR 70.3 38.7 32% 29.98 0.0
11 15:35 Calm 10.00 Fair CLR 69.8 38.1 32% 29.99 0.0
11 15:15 W 5 10.00 Fair CLR 70 38.5 32% 29.99 0.0
11 14:55 N 6 10.00 Fair CLR 68.9 40.1 35% 29.99 0.0
11 14:35 W 7 10.00 Partly Cloudy SCT055 69.1 40.8 36% 29.99 0.0
11 14:15 W 5 10.00 Partly Cloudy SCT055 68.2 41.9 39% 29.99 0.0
11 13:55 NW 6 10.00 Fair CLR 67.3 43.2 68 51.6 42% 29.99 0.0
11 13:35 N 5 10.00 Fair CLR 66 41.7 41% 29.99 0.0
11 13:15 Calm 10.00 Fair CLR 66.6 42.1 41% 30 0.0
11 12:55 N 3 10.00 Fair CLR 66.7 39.7 37% 30 0.0
11 12:35 NW 3 10.00 Fair CLR 66.2 43.7 44% 30.01 0.0
11 12:15 N 3 10.00 Fair CLR 65.5 42.8 44% 30.01 0.0
11 11:55 Calm 10.00 Fair CLR 64.4 43.7 47% 30.01 0.0
11 11:35 NW 7 10.00 Fair CLR 64.4 43 46% 30.02 0.0
11 11:15 Calm 10.00 Fair CLR 63.3 43.5 49% 30.02 0.0
11 10:55 NW 7 10.00 Fair CLR 62.8 44.6 52% 30.03 0.0
11 10:35 NW 5 10.00 Fair CLR 61 44.4 55% 30.03 0.0
11 10:15 Calm 10.00 Fair CLR 60.4 45 57% 30.03 0.0
11 09:55 Calm 10.00 Fair CLR 59 44.1 58% 30.03 0.0
11 09:35 Calm 10.00 Fair CLR 58.1 44.1 60% 30.03 0.0
11 09:15 Calm 10.00 Fair CLR 56.7 42.8 60% 30.03 0.0
11 08:55 Calm 10.00 Fair CLR 56.5 43.7 62% 30.03 0.0
11 08:35 Calm 10.00 Fair CLR 54.9 45.1 70% 30.03 0.0
11 08:15 Calm 10.00 Fair CLR 52.9 45.1 75% 30.02 0.0
11 07:55 W 3 10.00 Fair CLR 51.1 44.6 51.1 37.4 79% 30.02 0.0
11 07:35 Calm 10.00 Fair CLR 48.6 45 87% 30.02 0.0
11 07:15 SE 5 10.00 Fair CLR 45.1 42.6 91% 43 30.02 0.0
11 06:55 Calm 10.00 Fair CLR 41.9 39.4 91% 30.02 0.0
11 06:35 Calm 10.00 Fair CLR 40.1 37.8 91% 30.01 0.0
11 06:15 Calm 10.00 Fair CLR 38.8 36.7 92% 30 0.0
11 05:55 Calm 10.00 Fair CLR 37.4 34.3 89% 29.99 0.0
11 05:35 Calm 10.00 Fair CLR 38.5 35.6 89% 29.99 0.0
11 05:15 Calm 10.00 Fair CLR 38.3 36 91% 29.99 0.0
11 04:55 Calm 10.00 Fair CLR 38.5 36.3 92% 29.98 0.0
11 04:35 Calm 10.00 Fair CLR 38.5 36.7 93% 29.98 0.0
11 04:15 Calm 10.00 Fair CLR 39.2 37 92% 29.98 0.0
11 03:55 Calm 10.00 Fair CLR 38.7 36.5 92% 29.97 0.0
11 03:35 Calm 10.00 Fair CLR 40.6 38.8 93% 29.97 0.0
11 03:15 Calm 10.00 Fair CLR 39.4 36.3 89% 29.97 0.0
11 02:55 Calm 10.00 Fair CLR 40.3 37.8 91% 29.97 0.0
11 02:35 SE 3 10.00 Fair CLR 39.9 37.8 92% 29.96 0.0
11 02:15 Calm 5.00 Fog/Mist CLR 39.7 37.2 91% 29.97 0.0
11 01:55 Calm 10.00 Fair CLR 41.2 38.5 56.5 40.6 90% 29.98 0.0
11 01:35 N 5 10.00 Fair CLR 40.8 38.7 92% 38 29.98 0.0
11 01:15 NE 3 10.00 Fair CLR 41.4 39 91% 29.97 0.0
11 00:55 Calm 10.00 Fair CLR 41.7 38.5 88% 29.97 0.0
11 00:35 Calm 10.00 Fair CLR 42.3 40.1 92% 29.96 0.0
11 00:15 E 5 10.00 Fair CLR 42.4 40.1 91% 40 29.96 0.0
10 23:55 Calm 10.00 Fair CLR 43.2 40.6 91% 29.96 0.0
10 23:35 Calm 7.00 Fair CLR 43.3 39.7 87% 29.96 0.0
10 23:15 Calm 10.00 Fair CLR 44.1 39.6 84% 29.95 0.0
10 22:55 E 7 10.00 Fair CLR 45.5 41 84% 42 29.94 0.0
10 22:35 Calm 10.00 Fair CLR 45.5 41.5 86% 29.94 0.0
10 22:15 Calm 10.00 Fair CLR 45.9 41 83% 29.94 0.0
10 21:55 Calm 10.00 Fair CLR 47.8 42.4 82% 29.93 0.0
10 21:35 Calm 10.00 Fair CLR 48.9 41.7 76% 29.93 0.0
10 21:15 Calm 10.00 Fair CLR 52.7 41.2 65% 29.92 0.0
10 20:55 Calm 10.00 Fair CLR 54.5 39.7 58% 29.92 0.0
10 20:35 E 3 10.00 Fair CLR 54.7 40.3 58% 29.91 0.0
10 20:15 NE 5 10.00 Fair CLR 55.8 39.2 54% 29.91 0.0
10 19:55 Calm 10.00 Fair CLR 56.5 39.2 61.5 56.5 53% 29.91 0.0
10 19:35 NE 7 10.00 Fair CLR 57.4 39.7 52% 29.91 0.0
10 19:15 NE 6 10.00 Fair CLR 58.1 39.2 50% 29.91 0.0
10 18:55 NE 8 10.00 Fair CLR 58.3 38.7 48% 29.9 0.0
10 18:35 N 9 10.00 Fair CLR 58.1 37.2 46% 29.89 0.0
10 18:15 NE 7 10.00 Fair CLR 58.3 37.8 47% 29.89 0.0
10 17:55 NE 10 10.00 Fair CLR 58.3 37.8 47% 29.89 0.0
10 17:35 N 10 10.00 Fair CLR 58.6 37.2 45% 29.89 0.0
10 17:15 N 8 10.00 Fair CLR 58.8 37.9 46% 29.89 0.0
10 16:55 N 9 10.00 Fair CLR 59.4 39.6 48% 29.89 0.0
10 16:35 N 5 10.00 Fair CLR 59 39.6 49% 29.89 0.0
10 16:15 N 7 10.00 Fair CLR 58.8 40.5 51% 29.89 0.0
10 15:55 N 9 G 16 10.00 Fair CLR 58.8 41.5 53% 29.89 0.0
10 15:35 N 7 10.00 Fair CLR 59.2 43.2 56% 29.89 0.0
10 15:15 N 7 10.00 Partly Cloudy SCT030 59.5 44.4 58% 29.89 0.0
10 14:55 N 6 10.00 Partly Cloudy SCT032 60.3 45.7 59% 29.88 0.0
10 14:35 N 6 10.00 Partly Cloudy SCT032 60.6 46.8 60% 29.87 0.0
10 14:15 N 7 G 16 10.00 Partly Cloudy SCT032 61 46 58% 29.87 0.0
10 13:55 N 13 G 18 10.00 Partly Cloudy SCT033 60.6 45.3 60.6 50.5 57% 29.88 0.0
10 13:15 N 9 G 20 10.00 Fair CLR 59.2 42.4 54% 29.87 0.0
10 12:55 N 10 10.00 Fair CLR 58.6 42.6 55% 29.87 0.0
10 12:35 N 14 G 17 10.00 Partly Cloudy SCT031 58.1 41.9 55% 29.87 0.0
10 12:15 N 10 G 20 10.00 Partly Cloudy SCT029 58.1 43.2 58% 29.87 0.0
10 11:55 N 13 G 22 10.00 Partly Cloudy SCT029 57.4 42.6 58% 29.86 0.0
10 11:35 N 14 G 18 10.00 Mostly Cloudy BKN027 BKN034 56.5 43 61% 29.86 0.0
10 11:15 N 15 G 18 10.00 Mostly Cloudy BKN027 BKN034 55.4 43 63% 29.86 0.0
10 10:55 N 14 G 17 10.00 Overcast OVC029 55 42.6 63% 29.86 0.0
10 10:35 N 12 G 18 10.00 Mostly Cloudy BKN025 BKN030 BKN034 54.1 41.5 63% 29.86 0.0
10 10:15 N 14 G 21 10.00 Mostly Cloudy SCT023 BKN032 55 42.8 64% 29.86 0.0
10 09:55 N 9 10.00 Mostly Cloudy SCT022 BKN033 BKN050 52.3 43 71% 29.86 0.0
10 09:35 N 15 10.00 Mostly Cloudy BKN022 BKN033 53.8 43.5 68% 29.86 0.0
10 09:15 N 13 G 18 10.00 Mostly Cloudy SCT024 BKN033 52 42.4 70% 29.85 0.0
10 08:55 N 13 10.00 Overcast SCT022 OVC032 51.8 42.3 70% 29.85 0.0
10 08:35 N 10 10.00 Mostly Cloudy SCT019 SCT024 BKN032 50.9 42.4 73% 29.85 0.0
10 08:15 N 9 10.00 Overcast SCT023 OVC030 50.9 42.8 74% 29.84 0.0
10 07:55 NW 10 10.00 Overcast OVC030 50.5 42.6 52.3 48.6 74% 29.83 0.0
10 07:35 NW 8 10.00 Mostly Cloudy BKN031 49.5 42.1 76% 47 29.83 0.0
10 07:15 NW 8 10.00 Partly Cloudy SCT029 SCT034 48.7 41 75% 46 29.83 0.0
10 06:55 NW 9 10.00 Partly Cloudy SCT032 49.3 41 73% 46 29.83 0.0
10 06:35 NW 8 10.00 Partly Cloudy SCT035 49.1 40.5 72% 46 29.83 0.0
10 06:15 NW 12 G 16 10.00 Overcast OVC033 50 39.7 68% 46 29.82 0.0
10 05:55 N 7 10.00 Overcast BKN030 OVC038 49.3 38.8 67% 47 29.81 0.0
10 05:35 N 8 10.00 Overcast BKN038 OVC049 49.1 38.1 66% 46 29.81 0.0
10 05:15 N 5 10.00 Overcast BKN038 OVC049 48.6 39.2 70% 47 29.81 0.0
10 04:55 N 9 10.00 Overcast SCT025 OVC036 49.6 40.1 70% 46 29.81 0.0
10 04:35 N 9 10.00 Overcast OVC023 49.6 42.1 75% 46 29.81 0.0
10 04:15 N 9 10.00 Overcast SCT010 OVC021 49.1 43.5 81% 46 29.81 0.0
10 03:55 N 10 10.00 Overcast SCT010 OVC014 50.2 45 82% 29.81 0.0
10 03:35 NW 12 G 18 10.00 Overcast OVC016 51.1 45 80% 29.8 0.0
10 03:15 N 8 10.00 Overcast OVC016 51.4 45.1 79% 29.8 0.0
10 02:55 N 10 10.00 Overcast OVC016 50.9 45.5 82% 29.8 0.0
10 02:35 N 13 G 20 10.00 Overcast OVC016 51.4 45.1 79% 29.8 0.0
10 02:15 NW 10 G 17 10.00 Overcast OVC018 52 44.8 77% 29.81 0.0
10 01:55 NW 10 G 16 10.00 Overcast OVC020 52.3 44.6 58.1 52.3 75% 29.81 0.0
10 01:35 NW 8 10.00 Overcast OVC022 52.7 44.8 75% 29.8 0.0
10 01:15 NW 12 10.00 Overcast OVC022 52.9 44.4 73% 29.8 0.0
10 00:55 N 9 10.00 Overcast BKN024 OVC031 53.1 44.8 74% 29.81 0.0
Date Time (edt) Wind (mph) Vis. (mi.) Weather Sky Cond. Air Dwpt Max. Min. Relative Humidity Wind Chill (°F) Heat Index (°F) altimeter (in) sea level (mb) 1 hr 3 hr 6 hr
6 hour
Temperature (ºF) Pressure Precipitation (in)